Voltar ao catálogo

ONEWEB-0504

AtivoComunicaçõesPO
NORAD 54122·PAYLOAD·🇬🇧 United Kingdom

Lançado Oct 22, 2022 de Satish Dhawan Space Centre

Loading…

Próximas Passagens (próximas 24 horas)

TLE

AtualizadoSource: CelesTrak SupGP

Época: Sep 14, 2026, 16:36 UTC

1 54122C 22138K   26257.69184444 -.00002807  00000+0 -70194-2 0  2570
2 54122  87.9114 287.1398 0002145  89.2869  24.5004 13.19730249    13

Acompanhe ONEWEB-0504 em tempo real com AllMySat

Download on the App Store